Regional Weather Roundup
Issued by NWS

Home | Current Version | Previous Version | Text Only | Print | Product List | Glossary Off
Versions: 1 2 3 4 5 6 7 8 9 10 11 12 13 14 15 16 17 18 19 20 21 22 23 24 25 26 27 28

000
ASUS45 KTFX 252110
RWRMT
MONTANA REGIONAL WEATHER ROUNDUP
NATIONAL WEATHER SERVICE GREAT FALLS MT
300 PM MDT TUE APR 25 2017

NOTE: "FAIR" INDICATES FEW OR NO CLOUDS BELOW 12000 FEET WITH NO
SIGNIFICANT WEATHER AND/OR OBSTRUCTIONS TO VISIBILITY.

MTZ001>007-043-252200-
WEST OF THE DIVIDE

CITY           SKY/WX    TMP DP  RH WIND       PRES   REMARKS
KALISPELL      PTSUNNY   50  44  80 SE14      29.79F
MISSOULA       LGT RAIN  47  41  80 NW10G21   29.86R
BUTTE          CLOUDY    49  23  36 W14       29.81R
MULLAN PASS    CLOUDY    33  33 100 VRB3      29.84S FOG
ANACONDA         N/A     48  23  37 W13       29.82R
DEER LODGE       N/A     48  23  37 W10       29.83S
EUREKA           N/A     54  30  40 S16       29.78R
HAMILTON         N/A     54  28  37 N3        29.84R
PLAINS           N/A     52  37  56 W12       29.86
RONAN            N/A     46  39  76 NE8       29.88R
THOMPSON FALLS   N/A     54  38  54 SW16      29.90S
$$

MTZ008-052>055-252200-
SOUTHWEST MONTANA

CITY           SKY/WX    TMP DP  RH WIND       PRES   REMARKS
BOZEMAN        PTSUNNY   50  39  66 N7        29.80S
DILLON         MOSUNNY   49  31  49 S8        29.79S
W YELLOWSTONE  CLOUDY    37  32  81 SW8       29.80S WCI  31
THREE FORKS      N/A     51  30  44 E3        29.80F
TWIN BRIDGES     N/A     53  27  37 W10       29.81F VSB 0
$$

MTZ009-010-012-014-046-048-049-054-252200-
EAST SLOPES AND CENTRAL MONTANA

CITY           SKY/WX    TMP DP  RH WIND       PRES   REMARKS
CUT BANK       CLOUDY    37  35  92 N16       29.81R WCI  28
GREAT FALLS    TSTM      41  39  93 N17       29.80R FOG
MALMSTROM AFB  TSTM      45  37  76 W16G26    29.81R
HELENA         SUNNY     59  27  29 W18G24    29.75S
AUGUSTA        LGT RAIN  46  37  70 SE7       29.76R
BOWMANS CRNR   PTSUNNY   44  35  71 NE13      29.75R
CHOTEAU          N/A     50  37  62 SE8       29.78S
FAIRFIELD      PTSUNNY   43  39  85 E16       29.75F
POWER          RAIN      43  37  79 NW8       29.79R
RAYNESFORD     PTSUNNY   48  36  62 E10       29.77S
ULM            TSTM      45  40  83 E8        29.77R
$$

MTZ011-013-016-021-045-047-050-051-252200-
NORTH CENTRAL MONTANA

CITY           SKY/WX    TMP DP  RH WIND       PRES   REMARKS
HAVRE          CLOUDY    47  33  58 E17       29.83F
LEWISTOWN      MOSUNNY   44  34  67 E10       29.81F
N BAR RANCH    CLOUDY    32  32 100 SE7       29.87S WCI  26
CHINOOK          N/A     43  28  56 E18G26    29.86F
DENTON         PTSUNNY   47  35  63 MISG      29.77F
FORT BENTON      N/A     50  37  62 MISG      29.80F
GEYSER           N/A     47  40  76 E10       29.77F
GRASS RANGE    CLOUDY    37  33  86 E14       29.82F WCI  29
JUDITH GAP     CLOUDY    35  33  92 S16       29.82S WCI  25
STANFORD       LGT RAIN  44  38  79 SE10      29.78F
WINIFRED         N/A     45  34  63 E17       29.81F
$$

MTZ017>020-022>027-061-062-252200-
NORTHEAST MONTANA

CITY           SKY/WX    TMP DP  RH WIND       PRES   REMARKS
GLASGOW        CLOUDY    40  24  53 E12       29.95S
JORDAN           N/A     37  26  64 E8        29.92F WCI  31
SIDNEY         CLOUDY    38  24  57 NE7       29.95F
WOLF POINT     CLOUDY    44  24  45 E10       29.96S
MALTA          CLOUDY    39  27  60 SE13      29.93S WCI  32
PLENTYWOOD       N/A     37  23  56 NE9G17    29.97S WCI  31
POPLAR           N/A     43  21  42 E12       29.96S
SCOBEY           N/A     38  21  50 NE9       29.95  WCI  31
$$

MTZ028>42-056>058-252200-
SOUTHCENTRAL AND SOUTHEAST MONTANA

CITY           SKY/WX    TMP DP  RH WIND       PRES   REMARKS
BAKER          CLOUDY    30  24  78 N12       29.90R WCI  20
BILLINGS       CLOUDY    37  30  75 N6        29.88S
LIVINGSTON     CLOUDY    49  36  61 E9        29.79S
MILES CITY     CLOUDY    36  25  64 E7        29.92S WCI  30
BIG TIMBER     CLOUDY    45  37  76 SE10      29.85S
EKALAKA          N/A     26  23  88 N8        29.85  WCI  18
LAUREL           N/A     36  25  65 NE2       29.87F
ROUNDUP          N/A     38  28  67 NE6       29.81S
$$

REGIONAL REPORTS...DAKOTAS

CITY           SKY/WX    TMP DP  RH WIND       PRES   REMARKS
WILLISTON      CLOUDY    41  24  51 N12G17    29.97S
MINOT          CLOUDY    41  26  55 N18       29.91F
DICKINSON      CLOUDY    29  23  78 NE14      29.88R WCI  18
BEACH          PTSUNNY   34  25  69 NE13      29.93S WCI  25
TIOGA          CLOUDY    34  28  80 NE16      29.96S WCI  23
WATFORD CITY   CLOUDY    36  25  64 NE12G20   29.94S WCI  27
BISMARCK       CLOUDY    34  25  69 N16       29.89R WCI  24
GRAND FORKS    CLOUDY    37  30  75 N25G33    29.83F WCI  25
FARGO          CLOUDY    38  31  76 N23G35    29.75S WCI  27
BUFFALO SD       N/A     29  26  89 N16G24    29.79R WCI  17
RAPID CITY     LGT SNOW  29  26  89 N18       29.81R VSB 3/4 WCI  16
$$

REGIONAL REPORTS...WYOMING/IDAHO/WASHINGTON

CITY           SKY/WX    TMP DP  RH WIND       PRES   REMARKS
GILLETTE       SNOW      28  28 100 N16       29.81R WCI  16
SHERIDAN       CLOUDY    36  30  79 NW8       29.86R WCI  30
CODY           CLOUDY    40  34  79 N7        29.83R
YELLOWSTONE LA   N/A     40  26  57 VRB7      29.80R
IDAHO FALLS    PTSUNNY   49  40  71 SW10      29.81S
SALMON         CLOUDY    52  28  40 N6        29.82S
BOISE          MOSUNNY   56  33  42 NW9G17    29.92F
SPOKANE        LGT RAIN  48  41  76 SW13G25   29.87S
$$

REGIONAL REPORTS...ALBERTA

CITY           SKY/WX    TMP DP  RH WIND       PRES   REMARKS
CALGARY        PTSUNNY   34  27  75 NE13      29.87S WCI  25
LETHBRIDGE     CLOUDY    37  34  87 N13       29.85R WCI  29
MEDICINE HAT   LGT RAIN  37  34  87 NW3       29.87R FOG
WATERTON GATE    N/A     34  30  86 NE7         N/A  WCI  28
MILK RIVER       N/A     39  37  93 NW14        N/A  WCI  31
$$

REGIONAL REPORTS...SASKATCHEWAN

CITY           SKY/WX    TMP DP  RH WIND       PRES   REMARKS
SWIFT CURRENT  CLOUDY    34  25  69 E15       29.95S WCI  24
REGINA         MOSUNNY   36  21  55 NE10      30.03F WCI  28
SASKATOON      CLOUDY    37  19  48 E13G18    30.08S WCI  29
VAL MARIE        N/A     36  25  64 SE12        N/A  WCI  27
$$




USA.gov is the U.S. government's official web portal to all federal, state and local government web resources and services.